Wind_Speed
23 22 20 19 19 17 15 14 14 14 14 13 13 12 14 13 13 12 11 10 8 7 6 6 5 4 4 5 6 7 9 10 12 13 14 15 16 16 16 15 14 12 10 9
21 21 21 20 19 17 14 13 13 13 12 13 13 13 15 14 13 12 11 10 8 7 6 6 6 5 4 5 6 7 8 10 11 12 14 15 15 16 16 16 15 13 11 9
19 20 20 18 17 16 15 13 14 13 12 12 13 13 14 14 13 12 11 10 9 8 7 7 7 5 5 5 5 7 8 9 11 12 13 14 15 16 16 16 15 14 13 11
20 20 19 18 17 16 15 14 14 13 12 12 12 12 14 14 13 12 11 11 10 9 8 8 7 6 5 5 5 7 8 9 10 11 12 13 14 15 15 15 15 15 14 12
18 18 18 17 17 16 15 14 13 13 12 12 13 13 12 13 12 11 11 11 11 10 9 8 8 6 5 5 5 7 8 9 10 11 12 13 13 14 14 15 15 15 14 13
16 17 16 16 16 14 14 14 13 13 12 12 13 13 12 13 12 11 11 11 11 11 10 9 8 7 6 5 5 6 7 9 10 10 11 12 12 13 13 14 14 14 14 13
15 15 15 14 14 13 13 13 13 13 13 13 13 13 12 13 12 11 11 11 11 11 11 10 9 7 6 5 5 6 7 8 9 10 10 11 11 12 12 13 13 13 14 13
13 13 14 14 13 13 14 13 13 13 13 13 13 13 12 13 12 12 11 11 12 11 11 10 9 8 7 6 5 5 7 8 9 9 10 10 11 11 11 12 12 12 13 13
12 12 13 13 13 13 13 13 13 14 14 13 13 13 13 13 12 12 12 12 12 12 12 11 10 8 7 6 5 5 6 7 8 9 9 10 10 10 11 11 11 12 12 12
8 10 11 12 12 13 13 14 14 14 15 14 12 12 13 13 13 12 12 13 13 13 13 12 11 9 8 7 6 5 6 7 8 8 9 9 9 10 10 10 10 11 11 11
6 8 10 11 12 13 14 14 15 16 15 15 13 11 13 13 13 13 13 14 14 14 14 13 12 10 9 7 6 6 6 6 7 8 8 9 9 9 9 9 10 10 10 10
7 8 11 12 13 14 15 15 17 17 17 15 14 12 14 14 14 14 14 15 15 15 15 14 13 12 10 8 7 6 6 6 6 7 8 8 9 9 9 9 10 10 10 10
8 10 11 13 15 16 17 17 18 19 18 17 16 13 15 15 15 15 15 16 16 16 15 15 14 13 11 9 8 7 6 6 6 7 8 8 9 9 9 10 10 10 10 10
11 11 13 15 17 18 18 18 19 20 20 19 17 16 16 17 18 17 17 17 17 17 16 16 15 14 12 11 9 7 7 6 6 7 7 8 8 9 9 10 11 11 11 11
13 14 15 17 18 19 20 20 20 21 22 21 19 18 17 19 20 18 17 17 18 17 17 17 16 15 14 12 10 9 8 7 6 6 7 7 8 9 9 10 11 12 12 12
16 16 17 18 19 21 20 20 21 22 22 22 21 18 19 21 20 19 18 18 18 18 18 18 17 16 15 13 12 11 9 8 7 7 7 7 8 9 10 11 11 12 12 13
17 18 19 19 21 21 20 19 22 22 22 22 20 19 21 21 20 19 18 18 18 19 19 19 18 17 16 15 14 12 11 10 8 8 7 8 8 9 10 10 11 12 12 13
20 20 21 21 21 22 19 20 21 22 21 22 22 21 22 22 21 19 18 18 19 19 19 19 19 19 18 16 15 14 13 11 10 9 9 8 9 9 10 10 11 12 13 13
23 24 25 24 25 23 21 22 22 21 22 23 23 23 23 22 20 20 20 20 20 20 19 20 19 19 19 18 17 16 15 13 12 11 10 9 9 10 10 11 12 12 13 14
25 26 28 28 28 27 24 24 23 23 24 24 25 25 24 23 22 22 23 22 22 21 21 21 21 20 20 19 18 18 16 15 14 13 12 11 11 11 11 12 12 13 14 14
28 29 30 30 31 30 29 28 26 26 26 26 26 26 26 25 25 24 25 24 23 23 23 22 22 22 22 21 20 19 18 17 16 15 14 14 13 12 12 13 13 14 14 15
30 32 32 33 33 33 32 31 31 30 29 28 28 28 28 28 27 26 26 26 26 25 25 24 24 23 23 23 22 21 20 19 18 17 16 16 15 15 14 14 14 15 15 15
33 34 35 35 36 36 35 35 34 33 32 31 31 31 31 30 30 29 29 29 28 27 27 27 26 25 25 25 24 23 22 21 20 19 19 18 17 17 16 16 16 16 16 17
36 36 37 38 37 38 39 39 39 38 36 35 35 34 34 33 33 32 32 32 31 30 29 29 28 28 27 27 27 26 25 24 23 22 21 20 20 19 19 18 18 18 18 19
38 39 40 41 40 41 42 43 43 42 41 40 39 38 38 36 36 35 35 35 34 33 32 31 31 30 30 30 29 28 27 26 26 25 24 23 22 22 21 21 21 21 21 21
41 43 44 43 43 44 44 45 46 46 45 44 43 42 42 41 39 38 38 37 37 36 35 34 33 33 32 32 31 30 30 29 28 27 26 26 25 24 24 23 23 23 23 23
Wind_Direction
195 197 197 198 204 209 212 219 231 244 252 258 263 270 276 281 284 283 280 276 271 271 268 269 272 286 306 323 336 347 355 360 3 5 6 7 7 7 7 6 5 5 1 352
186 187 191 196 203 207 212 220 235 247 251 256 263 273 278 284 285 282 277 268 262 260 256 259 265 276 295 314 331 344 353 358 2 4 6 8 9 9 11 12 11 10 9 5
179 184 190 195 200 206 214 224 237 247 254 261 270 278 283 285 285 281 273 262 256 250 246 250 260 268 284 304 325 339 349 355 359 2 6 8 9 10 12 14 16 16 17 16
178 183 189 195 201 208 218 228 238 248 258 269 274 281 285 287 284 278 268 256 250 244 240 244 254 263 277 297 317 332 344 351 355 358 2 5 8 10 13 15 17 20 22 22
178 185 191 197 204 212 220 231 242 251 262 272 280 286 286 285 280 273 264 252 245 240 237 240 248 258 271 292 313 329 339 346 351 355 359 3 6 10 13 15 17 20 23 26
180 188 195 203 210 218 226 238 248 258 269 277 282 289 290 283 276 269 259 248 241 235 233 237 245 254 267 288 308 325 337 344 348 352 356 360 4 8 12 15 18 20 23 25
183 192 198 205 214 222 232 244 255 267 275 280 282 289 290 280 271 262 252 245 237 231 230 234 241 251 263 280 302 321 335 343 347 350 353 358 3 7 11 15 18 21 24 27
188 198 204 209 219 229 239 247 256 268 276 282 284 288 285 274 266 259 250 243 236 230 230 234 240 249 258 273 296 317 332 342 346 349 352 357 1 5 9 13 17 20 23 26
193 204 208 217 227 236 244 251 260 270 276 282 284 284 278 270 263 257 250 243 236 231 232 234 239 247 253 265 286 310 328 339 345 348 351 355 360 3 6 10 14 18 21 24
200 213 221 230 238 245 253 260 266 273 280 283 282 281 275 267 262 256 250 244 238 234 233 234 237 242 248 259 277 301 321 334 342 349 353 356 359 2 5 8 11 14 17 20
217 229 240 246 249 254 258 264 268 272 276 283 282 278 272 266 261 257 252 246 240 236 233 233 235 238 244 254 269 290 312 327 339 348 353 356 358 360 2 5 7 9 10 12
240 243 251 257 258 260 264 269 272 275 277 277 279 276 269 266 261 257 252 246 241 238 234 233 233 235 240 249 263 281 300 317 332 343 350 353 356 358 359 360 0 1 1 2
258 256 262 267 267 266 268 271 273 274 274 276 277 273 268 264 260 256 252 248 243 240 236 233 232 233 237 245 256 271 287 307 324 337 345 351 354 356 358 358 356 354 352 350
267 266 263 262 266 268 269 271 272 273 274 275 273 268 265 264 260 256 252 249 245 239 236 233 232 233 236 243 251 262 276 295 313 327 339 347 351 353 354 354 353 350 346 343
271 269 268 268 268 269 269 271 273 274 274 274 270 265 262 261 261 258 255 250 245 239 235 233 232 234 237 241 247 255 267 283 301 315 328 339 346 350 351 350 348 347 345 341
280 275 273 271 272 272 271 271 272 273 273 272 269 265 259 257 259 259 256 251 245 239 236 234 234 235 237 240 245 251 261 273 288 302 313 325 335 341 346 347 346 345 344 342
287 284 280 276 274 274 274 273 272 272 271 269 267 261 255 255 257 257 254 250 244 240 238 237 236 236 238 241 244 249 256 265 275 287 300 311 321 330 336 340 343 344 343 342
286 284 283 281 276 275 277 271 269 270 268 265 263 258 255 254 254 254 253 247 242 240 239 238 238 238 240 242 244 246 252 259 267 276 288 300 310 319 327 332 335 337 339 339
284 282 282 281 279 277 275 273 269 267 264 261 259 256 254 254 253 252 249 245 241 239 238 238 239 239 241 243 244 245 249 255 262 269 278 289 299 307 316 323 328 331 333 335
280 279 279 279 278 278 276 272 270 267 263 262 259 255 253 252 250 248 247 245 241 239 238 239 240 240 241 243 244 246 248 253 259 265 272 280 288 297 306 313 319 324 327 330
279 276 276 276 276 276 275 272 269 264 263 261 259 257 254 253 251 248 246 244 242 239 238 239 240 241 242 243 245 246 248 252 257 262 268 274 281 289 298 305 311 316 321 325
278 276 274 273 272 272 273 271 268 266 264 260 258 257 255 254 252 249 246 243 241 240 239 239 240 242 243 243 244 246 248 252 256 260 264 269 276 282 290 297 303 308 313 317
279 276 274 271 270 271 270 268 268 266 263 261 259 258 256 254 252 250 247 244 242 241 241 241 241 242 243 243 244 246 248 252 255 258 262 267 271 277 284 290 295 301 306 310
280 278 275 272 270 269 268 267 266 265 263 261 259 258 256 255 253 251 248 245 243 243 242 242 243 243 243 243 244 246 248 251 254 257 261 264 268 273 279 284 290 295 300 304
282 279 276 274 271 268 266 265 264 263 262 260 258 257 256 254 253 252 249 247 244 243 243 243 243 244 244 244 245 246 248 250 253 256 259 263 266 270 275 281 286 290 295 299
281 279 277 274 271 268 266 264 263 262 260 259 257 256 255 253 252 251 250 249 246 245 244 244 245 244 245 245 246 247 248 250 252 255 258 261 265 268 273 277 282 287 291 295
Height
5817 5825 5830 5835 5838 5842 5844 5847 5849 5850 5850 5850 5850 5850 5850 5850 5849 5848 5848 5847 5847 5847 5847 5846 5846 5845 5843 5842 5840 5837 5835 5831 5828 5824 5821 5817 5812 5808 5804 5800 5795 5792 5789 5786
5818 5824 5829 5832 5836 5840 5843 5845 5846 5847 5847 5848 5848 5848 5847 5847 5846 5846 5845 5845 5845 5845 5845 5845 5845 5844 5843 5841 5839 5837 5834 5831 5827 5824 5820 5816 5812 5808 5804 5800 5796 5792 5789 5786
5819 5824 5827 5832 5835 5838 5841 5842 5844 5844 5845 5845 5846 5846 5845 5844 5843 5843 5843 5843 5843 5843 5844 5844 5843 5843 5842 5840 5838 5836 5833 5830 5827 5824 5820 5816 5813 5809 5805 5801 5797 5793 5789 5786
5818 5823 5827 5830 5834 5836 5838 5840 5841 5842 5843 5843 5844 5844 5843 5841 5841 5841 5840 5841 5841 5842 5842 5842 5842 5842 5841 5839 5837 5835 5832 5830 5826 5823 5820 5816 5813 5809 5805 5801 5797 5794 5790 5787
5819 5823 5826 5830 5832 5834 5837 5838 5839 5840 5841 5841 5841 5841 5841 5839 5838 5838 5838 5838 5839 5840 5840 5840 5840 5840 5839 5838 5836 5834 5832 5829 5826 5823 5820 5816 5813 5809 5806 5802 5798 5795 5791 5788
5820 5823 5826 5829 5831 5833 5835 5837 5837 5838 5839 5840 5839 5838 5839 5837 5836 5836 5836 5836 5837 5838 5838 5838 5839 5839 5838 5837 5835 5833 5831 5828 5825 5822 5819 5816 5813 5809 5806 5803 5799 5796 5793 5790
5820 5823 5825 5828 5830 5832 5834 5836 5837 5837 5837 5837 5836 5836 5836 5834 5833 5833 5834 5834 5835 5835 5836 5837 5837 5837 5836 5835 5834 5832 5830 5827 5825 5822 5819 5816 5813 5810 5806 5803 5800 5797 5794 5791
5821 5824 5825 5827 5829 5831 5832 5834 5835 5836 5835 5835 5833 5833 5833 5831 5831 5831 5831 5832 5832 5833 5834 5835 5835 5835 5835 5834 5833 5831 5829 5827 5824 5821 5818 5815 5812 5809 5807 5804 5801 5798 5795 5792
5821 5823 5825 5826 5828 5829 5830 5831 5832 5832 5832 5832 5831 5831 5830 5828 5828 5828 5829 5829 5830 5831 5832 5832 5833 5833 5833 5832 5831 5830 5828 5826 5823 5820 5818 5815 5812 5809 5807 5804 5801 5798 5796 5793
5822 5823 5824 5825 5826 5827 5828 5828 5829 5829 5829 5829 5829 5828 5827 5826 5825 5826 5826 5827 5827 5828 5829 5830 5830 5831 5831 5831 5830 5828 5827 5825 5822 5820 5817 5814 5812 5809 5806 5804 5801 5799 5796 5794
5821 5823 5824 5824 5825 5825 5826 5826 5826 5826 5826 5826 5825 5827 5823 5823 5822 5823 5823 5824 5825 5826 5826 5827 5828 5828 5829 5829 5828 5827 5825 5823 5821 5819 5816 5814 5811 5809 5806 5804 5801 5799 5797 5795
5820 5822 5822 5823 5823 5823 5823 5823 5823 5823 5822 5822 5821 5825 5820 5819 5819 5819 5820 5821 5822 5823 5824 5824 5825 5826 5826 5826 5826 5825 5824 5822 5820 5818 5816 5813 5811 5808 5806 5803 5801 5799 5797 5795
5819 5820 5821 5821 5822 5820 5819 5819 5819 5819 5818 5818 5818 5821 5817 5816 5815 5816 5817 5817 5818 5819 5821 5821 5822 5823 5824 5824 5824 5823 5822 5821 5819 5817 5815 5812 5810 5807 5805 5803 5800 5798 5796 5794
5816 5817 5818 5818 5817 5815 5815 5815 5814 5814 5814 5814 5814 5814 5814 5812 5811 5812 5813 5814 5815 5816 5817 5818 5819 5820 5821 5821 5821 5821 5820 5819 5817 5815 5813 5811 5809 5807 5804 5802 5799 5797 5795 5793
5813 5813 5813 5812 5811 5810 5810 5810 5809 5809 5809 5809 5809 5809 5809 5808 5807 5808 5809 5809 5811 5812 5813 5814 5816 5817 5817 5818 5818 5818 5817 5816 5815 5814 5812 5810 5808 5805 5803 5801 5798 5796 5793 5791
5809 5809 5808 5807 5806 5805 5805 5805 5804 5803 5803 5803 5803 5804 5803 5802 5803 5804 5804 5805 5806 5808 5809 5810 5812 5813 5814 5814 5815 5815 5814 5814 5813 5811 5810 5808 5806 5804 5802 5799 5797 5795 5792 5790
5805 5804 5803 5803 5801 5800 5801 5801 5799 5798 5798 5797 5797 5799 5797 5797 5798 5799 5800 5801 5802 5803 5805 5806 5808 5809 5810 5811 5811 5811 5811 5811 5810 5809 5808 5806 5804 5802 5800 5798 5796 5793 5791 5788
5800 5799 5797 5797 5797 5795 5798 5795 5793 5792 5792 5791 5791 5791 5791 5791 5793 5794 5795 5796 5797 5798 5800 5801 5803 5804 5806 5806 5807 5807 5807 5807 5807 5806 5805 5803 5802 5800 5798 5796 5794 5791 5789 5786
5794 5793 5791 5791 5789 5789 5790 5788 5787 5786 5786 5784 5784 5785 5786 5786 5788 5789 5790 5790 5792 5793 5795 5796 5798 5799 5801 5802 5802 5803 5803 5803 5803 5802 5801 5800 5799 5797 5796 5794 5791 5789 5787 5784
5787 5786 5785 5783 5782 5782 5784 5782 5780 5781 5780 5779 5778 5779 5780 5781 5783 5784 5783 5785 5786 5788 5789 5791 5792 5794 5795 5796 5797 5798 5798 5798 5798 5798 5797 5796 5795 5794 5792 5790 5788 5786 5784 5782
5780 5778 5777 5776 5774 5774 5774 5773 5774 5775 5774 5772 5772 5772 5773 5774 5776 5777 5777 5779 5780 5782 5783 5785 5786 5788 5789 5790 5792 5792 5793 5793 5793 5793 5793 5792 5791 5790 5788 5787 5785 5783 5781 5778
5770 5769 5768 5767 5766 5767 5764 5765 5765 5765 5765 5765 5765 5765 5766 5767 5768 5769 5770 5772 5773 5775 5776 5778 5779 5781 5783 5784 5785 5786 5787 5787 5787 5787 5787 5787 5786 5785 5784 5782 5781 5779 5777 5775
5760 5759 5758 5758 5758 5756 5754 5754 5754 5755 5756 5756 5757 5757 5758 5759 5760 5761 5762 5764 5765 5767 5769 5770 5772 5773 5775 5776 5778 5779 5780 5780 5781 5781 5781 5781 5780 5780 5779 5777 5776 5774 5772 5770
5749 5747 5746 5745 5746 5745 5743 5742 5743 5743 5745 5746 5747 5748 5748 5749 5751 5752 5753 5755 5757 5758 5760 5762 5763 5765 5767 5768 5770 5771 5772 5773 5774 5774 5774 5774 5774 5773 5772 5771 5770 5769 5767 5765
5738 5735 5733 5733 5734 5732 5731 5730 5730 5731 5732 5734 5735 5736 5737 5739 5740 5742 5743 5745 5747 5749 5751 5753 5754 5756 5758 5759 5761 5763 5764 5765 5766 5766 5767 5767 5767 5766 5766 5765 5764 5762 5761 5759
5724 5721 5719 5719 5719 5718 5718 5717 5716 5717 5718 5720 5722 5724 5725 5726 5729 5730 5732 5734 5736 5738 5740 5742 5745 5746 5748 5750 5752 5753 5755 5756 5757 5758 5758 5759 5759 5759 5758 5757 5756 5755 5754 5752